Location: USNO
(38.9242°N, 77.0663°W)
Time: 21:26:31
(UTC-04:00)

Tiangong 1 - Pass Details

Date: 11 October 2017
Orbit: 293 x 320 km, 42.8° (Epoch: 19 October)

Event Time Altitude Azimuth Distance (km) Brightness Sun altitude
Rises 19:31:36 0° 286° (WNW) 2,042 6.4 -11.8°
Reaches altitude 10° 19:33:41 10° 296° (WNW) 1,206 4.7 -12.2°
Maximum altitude 19:36:12 34° 5° (N) 534 1.7 -12.7°
Enters shadow 19:37:19 23° 53° (NE) 717 2.0 -12.9°
